KD8OUK Weather Reports


time (UTC)temp
C
wind
direction
speed
KPH
gust
KPH
rain 1hr
cm
rain 24hr
cm
rain mn
cm
humidity
%
barometer
mb
20260504184520 24 247 14.5 24.1 0.00 0.00 0.00 51 1007.1
20260504184031 24 242 17.7 27.4 0.00 0.00 0.00 52 1007.1
20260504183523 25 254 17.7 25.7 0.00 0.00 0.00 51 1007.1
20260504183015 25 231 16.1 25.7 0.00 0.00 0.00 49 1007.1
20260504182525 25 253 14.5 19.3 0.00 0.00 0.00 49 1007.0
20260504182018 25 235 14.5 22.5 0.00 0.00 0.00 50 1006.9
20260504181528 25 252 16.1 25.7 0.00 0.00 0.00 50 1006.9
20260504181020 24 242 16.1 24.1 0.00 0.00 0.00 52 1006.9
20260504180531 24 242 16.1 24.1 0.00 0.00 0.00 52 1006.9
20260504180022 23 256 14.5 16.1 0.00 0.00 0.00 53 1007.1
20260504175532 23 242 16.1 27.4 0.00 0.00 0.00 52 1007.2
20260504175024 23 241 14.5 24.1 0.00 0.00 0.00 53 1007.2
20260504174516 23 262 16.1 19.3 0.00 0.00 0.00 52 1007.3
20260504174026 23 280 12.9 19.3 0.00 0.00 0.00 54 1007.3
20260504173519 23 251 16.1 24.1 0.00 0.00 0.00 53 1007.4
20260504173029 22 256 17.7 25.7 0.00 0.00 0.00 54 1007.4
20260504172520 22 245 16.1 30.6 0.00 0.00 0.00 55 1007.6
20260504172030 23 272 16.1 20.9 0.00 0.00 0.00 54 1007.7
20260504171522 22 246 14.5 19.3 0.00 0.00 0.00 56 1007.7
20260504171026 22 271 16.1 29.0 0.00 0.00 0.00 55 1007.7
20260504170523 22 250 12.9 20.9 0.00 0.00 0.00 55 1007.7
20260504151025 17 264 14.5 20.9 0.00 0.00 0.00 67 1008.8
20260504150515 16 234 11.3 22.5 0.00 0.00 0.00 68 1008.8
20260504141019 14 248 11.3 14.5 0.00 0.00 0.00 73 1008.9
20260504140517 14 243 9.7 16.1 0.00 0.00 0.00 74 1008.9
20260504130532 12 216 8.0 12.9 0.00 0.00 0.00 74 1009.5
20260504110532 7 68 1.6 3.2 0.00 17.98 0.00 86 1009.5
20260504100526 7 68 0.0 3.2 0.00 17.98 0.00 85 1009.7
20260504081533 7 203 0.0 3.2 0.00 17.98 0.00 84 1010.5
20260504081025 7 180 0.0 3.2 0.00 17.98 0.00 83 1010.5
20260504080517 7 0.0 1.6 0.00 17.98 0.00 83 1010.5
20260504050522 9 200 1.6 6.4 0.00 17.98 0.00 78 1012.4
20260504045524 9 201 1.6 4.8 0.00 17.98 0.00 78 1012.4
20260504045016 9 197 3.2 8.0 0.00 17.98 0.00 78 1012.3
20260504044527 9 171 3.2 6.4 0.00 17.98 0.00 78 1012.3
20260504044019 9 88 3.2 6.4 0.00 17.98 0.00 78 1012.3
20260504043529 9 155 3.2 4.8 0.00 17.98 0.00 79 1012.4
20260504043021 9 160 3.2 6.4 0.00 17.98 0.00 79 1012.4
20260504042531 9 176 3.2 4.8 0.00 17.98 0.00 79 1012.5
20260504042023 9 161 3.2 6.4 0.00 17.98 0.00 79 1012.6
20260504041515 9 172 3.2 4.8 0.00 17.98 0.00 79 1012.6
20260504041020 9 175 3.2 4.8 0.00 17.98 0.00 79 1012.6
20260504040530 9 190 3.2 6.4 0.00 17.98 0.00 80 1012.6
20260504040027 9 146 3.2 8.0 0.00 17.98 0.00 80 1012.7
20260504035532 8 179 3.2 8.0 0.00 17.98 17.98 80 1012.8
20260504035024 8 148 3.2 4.8 0.00 17.98 17.98 80 1012.8
20260504034518 8 168 3.2 4.8 0.00 17.98 17.98 81 1012.9
20260504034027 8 190 3.2 6.4 0.00 17.98 17.98 81 1012.9
20260504033526 8 182 3.2 8.0 0.00 17.98 17.98 81 1013.1
20260504033023 8 195 3.2 6.4 0.00 17.98 17.98 81 1013.1
20260504032515 8 179 3.2 6.4 0.00 17.98 17.98 80 1013.1
20260504032020 8 188 3.2 4.8 0.00 17.98 17.98 80 1013.1
20260504031518 8 198 3.2 8.0 0.00 17.98 17.98 80 1013.1
20260504031016 8 204 3.2 8.0 0.00 17.98 17.98 80 1013.3
20260504030520 8 118 3.2 4.8 0.00 17.98 17.98 81 1013.3
20260504030025 8 140 3.2 11.3 0.00 17.98 17.98 82 1013.3
20260504025517 8 168 3.2 6.4 0.00 17.98 17.98 82 1013.3
20260504025027 8 179 1.6 4.8 0.00 17.98 17.98 82 1013.3
20260504024520 8 181 3.2 4.8 0.00 17.98 17.98 83 1013.3
20260504024030 8 112 1.6 4.8 0.00 17.98 17.98 83 1013.3
20260504023522 8 68 0.0 3.2 0.00 17.98 17.98 85 1013.3
20260504023032 8 68 3.2 3.2 0.00 17.98 17.98 86 1013.3
20260504022525 8 107 3.2 3.2 0.00 17.98 17.98 87 1013.4
20260504022017 8 155 3.2 4.8 0.00 17.98 17.98 87 1013.4
20260504021526 8 169 1.6 3.2 0.00 17.98 17.98 87 1013.5
20260504021020 8 158 3.2 4.8 0.00 17.98 17.98 86 1013.6
20260504020530 8 166 3.2 4.8 0.00 17.98 17.98 86 1013.6
20260504020023 8 171 3.2 4.8 0.00 17.98 17.98 85 1013.5
20260504015532 8 184 3.2 4.8 0.00 17.98 17.98 84 1013.5
20260504015024 8 208 3.2 4.8 0.00 17.98 17.98 84 1013.5
20260504014516 8 197 3.2 9.7 0.00 17.98 17.98 85 1013.4
20260504014026 8 205 1.6 4.8 0.00 17.98 17.98 86 1013.4
20260504013519 7 224 3.2 6.4 0.00 17.98 17.98 86 1013.5
20260504013029 7 207 3.2 6.4 0.00 17.98 17.98 86 1013.5
20260504012521 7 238 4.8 8.0 0.00 17.98 17.98 87 1013.4
20260504012032 7 231 3.2 4.8 0.00 17.98 17.98 86 1013.3
20260504011523 7 210 3.2 6.4 0.00 17.98 17.98 86 1013.2
20260504011016 7 206 4.8 8.0 0.00 17.98 17.98 86 1013.1
20260504010525 7 149 3.2 6.4 0.00 17.98 17.98 87 1013.1
20260504010018 7 199 3.2 8.0 0.00 17.98 17.98 87 1013.4
20260504005527 7 186 3.2 4.8 0.00 17.98 17.98 87 1013.4
20260504005020 7 103 1.6 3.2 0.00 17.98 17.98 87 1013.4
20260504004524 7 110 3.2 4.8 0.00 17.98 17.98 88 1013.4
20260504004022 7 177 1.6 3.2 0.00 17.98 17.98 89 1013.4
20260504003521 7 204 1.6 6.4 0.00 17.98 17.98 89 1013.3
20260504003019 7 162 4.8 6.4 0.00 17.98 17.98 89 1013.3
20260504002517 7 174 4.8 6.4 0.00 17.98 17.98 89 1013.3
20260504002015 7 159 4.8 6.4 0.00 17.98 17.98 89 1013.3
20260504001519 7 159 4.8 6.4 0.00 17.98 17.98 89 1013.3
20260504001030 7 159 4.8 6.4 0.00 17.98 17.98 89 1013.4
20260504000523 8 166 4.8 4.8 0.00 17.98 17.98 89 1013.4
20260504000032 8 156 3.2 6.4 0.00 17.98 17.98 89 1013.6
20260503235524 8 162 4.8 6.4 0.00 17.98 17.98 89 1013.7
20260503235016 8 166 4.8 6.4 0.00 17.98 17.98 88 1013.8
20260503234527 8 138 3.2 4.8 0.00 17.98 17.98 88 1013.8
20260503234019 8 155 1.6 3.2 0.00 17.98 17.98 87 1013.8
20260503233529 8 169 1.6 4.8 0.00 17.98 17.98 87 1013.7
20260503233021 8 0.0 0.0 0.00 17.98 17.98 87 1013.7
20260503232531 8 0.0 0.0 0.00 17.98 17.98 87 1014.0
20260503232024 8 158 0.0 3.2 0.00 17.98 17.98 87 1014.1
20260503231516 8 164 3.2 3.2 0.00 17.98 17.98 87 1014.2
20260503231027 8 170 1.6 3.2 0.00 17.98 17.98 86 1014.5
20260503230518 8 175 3.2 4.8 0.00 17.98 17.98 86 1014.5
20260503230029 8 270 9.7 9.7 0.00 17.98 17.98 86 1014.9
20260503225521 8 259 8.0 16.1 0.00 17.98 17.98 86 1015.0
20260503225032 8 238 11.3 17.7 0.00 17.98 17.98 84 1015.0
20260503224523 8 274 12.9 17.7 0.00 17.98 17.98 82 1015.0
20260503224015 9 271 17.7 25.7 0.00 17.98 17.98 79 1015.0
20260503223526 9 276 17.7 27.4 0.00 17.98 17.98 76 1015.2
20260503223018 10 252 17.7 25.7 0.00 17.98 17.98 73 1015.2
20260503222528 10 203 12.9 12.9 0.00 17.98 17.98 72 1015.2
20260503222019 10 273 22.5 27.4 0.00 17.98 17.98 70 1015.2
20260503221529 10 266 20.9 30.6 0.00 17.98 17.98 68 1015.1
20260503221021 10 262 19.3 32.2 0.00 17.98 17.98 66 1015.0
20260503220525 11 229 19.3 20.9 0.00 17.98 17.98 62 1015.0
20260503220023 11 265 16.1 20.9 0.00 17.98 17.98 60 1014.6
20260503215521 12 285 19.3 29.0 0.00 17.98 17.98 57 1014.5
20260503215019 12 273 20.9 35.4 0.00 17.98 17.98 52 1014.4
20260503214517 13 244 20.9 30.6 0.00 17.98 17.98 45 1014.3
20260503214016 13 247 14.5 20.9 0.00 17.98 17.98 45 1014.3
20260503213519 14 241 16.1 22.5 0.00 17.98 17.98 44 1014.3
20260503213029 14 254 16.1 20.9 0.00 17.98 17.98 44 1014.3
20260503212521 14 257 17.7 25.7 0.00 17.98 17.98 43 1014.3
20260503212032 15 258 17.7 25.7 0.00 17.98 17.98 42 1014.3
20260503211524 15 255 17.7 25.7 0.00 17.98 17.98 43 1014.4
20260503211017 15 260 14.5 27.4 0.00 17.98 17.98 43 1014.5
20260503210526 15 251 11.3 17.7 0.00 17.98 17.98 44 1014.5
20260503210019 15 240 16.1 24.1 0.00 17.98 17.98 42 1014.6
20260503205529 15 263 14.5 22.5 0.00 17.98 17.98 43 1014.7
20260503205021 15 257 17.7 22.5 0.00 17.98 17.98 42 1014.7
20260503204531 15 264 12.9 20.9 0.00 17.98 17.98 42 1014.7
20260503204023 15 266 17.7 25.7 0.00 17.98 17.98 41 1014.7
20260503203517 -17 293 12.9 12.9 0.00 17.98 17.98 1015.0
20260503203026 15 277 16.1 25.7 0.00 17.98 17.98 41 1015.0
20260503202518 15 260 14.5 20.9 0.00 17.98 17.98 40 1015.0
20260503202028 16 267 17.7 27.4 0.00 17.98 17.98 40 1015.0
20260503201520 16 252 14.5 24.1 0.00 17.98 17.98 41 1015.1
20260503201030 16 250 16.1 25.7 0.00 17.98 17.98 40 1015.2
20260503200525 16 247 14.5 25.7 0.00 17.98 17.98 40 1015.2
20260503200015 16 255 14.5 24.1 0.00 17.98 17.98 40 1015.2
20260503195525 16 252 17.7 20.9 0.00 17.98 17.98 39 1015.2
20260503195017 16 263 17.7 24.1 0.00 17.98 17.98 39 1015.3
20260503194528 16 269 17.7 27.4 0.00 17.98 17.98 39 1015.4
20260503194021 17 271 17.7 30.6 0.00 17.98 17.98 38 1015.4
20260503193531 17 281 16.1 16.1 0.00 17.98 17.98 38 1015.5
20260503193023 16 250 16.1 25.7 0.00 17.98 17.98 38 1015.5
20260503192516 17 248 16.1 20.9 0.00 17.98 17.98 38 1015.6
20260503192026 16 254 16.1 22.5 0.00 17.98 17.98 38 1015.7
20260503191518 17 267 17.7 25.7 0.00 17.98 17.98 39 1015.7
20260503191022 16 281 16.1 20.9 0.00 17.98 17.98 39 1015.9
20260503190520 17 247 16.1 20.9 0.00 17.98 17.98 38 1015.9
20260503190018 16 251 17.7 35.4 0.00 17.98 17.98 38 1016.1
20260503185516 17 255 17.7 20.9 0.00 17.98 17.98 38 1016.2
20260503185033 16 265 16.1 25.7 0.00 17.98 17.98 38 1016.2